Grand Island, NE

1:04 AM CDT on July 26, 2017 (GMT -0500)
Central Nebraska Regional

Weather History for KGRI - October, 2013

Change the Weather History Date:

Thursday, October 17, 2013

  Actual Average Record
Temperature  
Mean Temperature 43 °F 52 °F  
Max Temperature 53 °F 64 °F 90 °F (1926)
Min Temperature 32 °F 39 °F 15 °F (1922)
Degree Days  
Heating Degree Days 22 13  
Month to date heating degree days 141 180  
Since 1 July heating degree days 165 295  
Cooling Degree Days 0 0  
Month to date cooling degree days 15 10  
Year to date cooling degree days 1265 1033  
Moisture  
Dew Point 35 °F    
Average Humidity 72    
Maximum Humidity 89    
Minimum Humidity 54    
Precipitation  
Precipitation 0.00 in 0.07 in 0.87 in (1985)
Month to date precipitation 3.64 1.13  
Year to date precipitation 25.43 24.13  
Snow  
Snow 0.00 in 0.00 in T in (1946)
Month to date snowfall 0.0 0.3  
Since 1 July snowfall 0.0 0.4  
Since 1 September snowfall 0.0 0.4  
Snow Depth 0.00 in    
Sea Level Pressure  
Sea Level Pressure 30.02 in    
Wind  
Wind Speed 12 mph (NW)    
Max Wind Speed 28 mph    
Max Gust Speed 35 mph    
Visibility 10 miles    
Events      
T = Trace of Precipitation, MM = Missing Value Source: NWS Daily Summary

Daily Weather History Graph

Daily Weather History Graph

Search for Another Location

Airport or City:

Trip Planner

Search our weather history database for the weather conditions in past years. The results will help you decide how hot, cold, wet, or windy it might be!

Date:

Astronomy

Oct. 17, 2013 Rise Set
Actual Time 7:47 AM CDT 6:49 PM CDT
Civil Twilight 7:19 AM CDT 7:16 PM CDT
Nautical Twilight 6:47 AM CDT 7:48 PM CDT
Astronomical Twilight 6:15 AM CDT 8:20 PM CDT
Moon 6:04 PM CDT (10/17) 6:20 AM CDT (10/17)
Length of Visible Light 11h 57m
Length of Day
11h 02m
Waxing Gibbous, 98% of the Moon is Illuminated
Oct 17
Waxing Gibbous
Oct 18
Full
Oct 26
Last Quarter
Nov 3
New
Nov 9
First Quarter

Hourly Weather History & Observations

Time (CDT) Temp. Windchill Dew Point Humidity Pressure Visibility Wind Dir Wind Speed Gust Speed Precip Events Conditions
12:53 AM 39.0 °F - 33.1 °F 79% 29.97 in 10.0 mi Calm Calm - N/A   Clear
1:53 AM 39.0 °F 35.7 °F 32.0 °F 76% 29.96 in 10.0 mi SW 4.6 mph - N/A   Clear
2:53 AM 37.9 °F 34.4 °F 33.1 °F 83% 29.95 in 10.0 mi WSW 4.6 mph - N/A   Clear
3:53 AM 37.9 °F 33.5 °F 33.1 °F 83% 29.94 in 10.0 mi WSW 5.8 mph - N/A   Clear
4:53 AM 37.9 °F 32.1 °F 33.1 °F 83% 29.93 in 10.0 mi WSW 8.1 mph - N/A   Clear
5:53 AM 37.0 °F 31.6 °F 33.1 °F 86% 29.93 in 10.0 mi West 6.9 mph - N/A   Clear
6:53 AM 37.9 °F 31.5 °F 33.1 °F 83% 29.94 in 10.0 mi West 9.2 mph - N/A   Clear
7:53 AM 35.1 °F 28.6 °F 32.0 °F 89% 29.96 in 10.0 mi West 8.1 mph - N/A   Clear
8:53 AM 39.9 °F 33.4 °F 34.0 °F 79% 29.98 in 10.0 mi WNW 10.4 mph - N/A   Clear
9:53 AM 45.0 °F 38.9 °F 36.0 °F 71% 30.00 in 10.0 mi WNW 12.7 mph - N/A   Clear
10:53 AM 48.9 °F - 37.0 °F 64% 30.01 in 10.0 mi NW 16.1 mph - N/A   Clear
11:53 AM 50.0 °F - 39.0 °F 66% 30.02 in 10.0 mi NW 21.9 mph 31.1 mph N/A   Clear
12:53 PM 52.0 °F - 39.0 °F 61% 30.03 in 10.0 mi NNW 20.7 mph 29.9 mph N/A   Scattered Clouds
1:04 PM 50.0 °F - 39.2 °F 66% 30.01 in 10.0 mi NNW 20.7 mph 27.6 mph N/A   Mostly Cloudy
1:42 PM 51.8 °F - 39.2 °F 62% 30.01 in 10.0 mi NNW 23.0 mph 29.9 mph N/A   Overcast
1:53 PM 52.0 °F - 39.0 °F 61% 30.03 in 10.0 mi NW 23.0 mph - N/A   Overcast
2:53 PM 51.1 °F - 37.9 °F 61% 30.03 in 10.0 mi NNW 21.9 mph 29.9 mph N/A   Overcast
3:53 PM 51.1 °F - 36.0 °F 56% 30.03 in 10.0 mi NNW 20.7 mph 31.1 mph N/A   Overcast
4:53 PM 48.0 °F - 36.0 °F 63% 30.05 in 10.0 mi NNW 21.9 mph 27.6 mph N/A   Overcast
5:53 PM 46.9 °F - 35.1 °F 63% 30.06 in 10.0 mi NNW 13.8 mph - N/A   Overcast
6:53 PM 46.9 °F - 34.0 °F 61% 30.09 in 10.0 mi NNW 11.5 mph - N/A   Overcast
7:53 PM 44.1 °F 39.0 °F 33.1 °F 65% 30.11 in 10.0 mi NNW 9.2 mph - N/A   Mostly Cloudy
8:53 PM 42.1 °F 35.7 °F 30.9 °F 65% 30.14 in 10.0 mi NNW 11.5 mph - N/A   Clear
9:53 PM 39.0 °F 34.0 °F 32.0 °F 76% 30.14 in 10.0 mi NW 6.9 mph - N/A   Mostly Cloudy
10:53 PM 36.0 °F 30.3 °F 30.9 °F 82% 30.15 in 10.0 mi WNW 6.9 mph - N/A   Clear
11:53 PM 33.1 °F 27.7 °F 30.0 °F 89% 30.14 in 10.0 mi West 5.8 mph - N/A   Clear